TimeEDT,TemperatureF,Dew PointF,Humidity,Sea Level PressureIn,VisibilityMPH,Wind Direction,Wind SpeedMPH,Gust SpeedMPH,PrecipitationIn,Events,Conditions,WindDirDegrees,DateUTC
12:53 AM,27.0,7.0,43,29.82,10.0,NW,26.5,36.8,N/A,,Clear,310,2013-03-15 04:53:00
1:53 AM,27.0,9.0,47,29.83,10.0,NW,26.5,34.5,N/A,,Partly Cloudy,310,2013-03-15 05:53:00
2:53 AM,27.0,10.0,49,29.83,10.0,WNW,27.6,36.8,N/A,,Scattered Clouds,300,2013-03-15 06:53:00
3:53 AM,26.1,10.0,51,29.82,10.0,NW,18.4,42.6,N/A,,Mostly Cloudy,310,2013-03-15 07:53:00
4:53 AM,26.1,10.0,51,29.83,10.0,WNW,18.4,32.2,N/A,,Overcast,300,2013-03-15 08:53:00
5:53 AM,26.1,10.0,51,29.84,10.0,WNW,21.9,32.2,N/A,,Mostly Cloudy,300,2013-03-15 09:53:00
6:53 AM,25.0,10.9,55,29.86,10.0,NW,18.4,25.3,N/A,,Scattered Clouds,310,2013-03-15 10:53:00
7:53 AM,26.1,10.9,53,29.87,10.0,WNW,20.7,27.6,N/A,,Scattered Clouds,300,2013-03-15 11:53:00
8:53 AM,28.0,10.9,49,29.86,10.0,NW,19.6,26.5,N/A,,Clear,310,2013-03-15 12:53:00
9:53 AM,30.0,10.9,45,29.87,10.0,NW,16.1,28.8,N/A,,Partly Cloudy,310,2013-03-15 13:53:00
10:53 AM,30.9,12.0,46,29.86,10.0,NW,16.1,25.3,N/A,,Clear,310,2013-03-15 14:53:00
11:53 AM,33.1,12.0,42,29.84,10.0,WNW,23.0,27.6,N/A,,Clear,300,2013-03-15 15:53:00
12:53 PM,36.0,12.0,37,29.83,10.0,West,18.4,25.3,N/A,,Clear,260,2013-03-15 16:53:00
1:53 PM,37.0,12.9,37,29.79,10.0,West,18.4,25.3,N/A,,Mostly Cloudy,260,2013-03-15 17:53:00
2:53 PM,37.0,17.1,44,29.76,10.0,WSW,20.7,26.5,N/A,,Clear,250,2013-03-15 18:53:00
3:53 PM,37.9,21.9,53,29.73,10.0,WSW,17.3,-,N/A,,Clear,240,2013-03-15 19:53:00
4:53 PM,37.9,23.0,55,29.72,10.0,WSW,23.0,27.6,N/A,,Overcast,240,2013-03-15 20:53:00
5:53 PM,37.9,25.0,60,29.71,10.0,WSW,20.7,31.1,N/A,,Scattered Clouds,250,2013-03-15 21:53:00
6:53 PM,37.9,27.0,65,29.71,10.0,WSW,21.9,33.4,N/A,,Mostly Cloudy,250,2013-03-15 22:53:00
7:53 PM,39.0,28.9,67,29.70,10.0,West,24.2,31.1,N/A,,Scattered Clouds,260,2013-03-15 23:53:00
8:53 PM,39.0,30.0,70,29.70,10.0,West,19.6,-,N/A,,Mostly Cloudy,260,2013-03-16 00:53:00
9:53 PM,39.0,30.9,73,29.70,10.0,West,12.7,-,N/A,,Overcast,270,2013-03-16 01:53:00
10:53 PM,41.0,30.9,67,29.69,10.0,West,21.9,27.6,N/A,,Overcast,270,2013-03-16 02:53:00
11:53 PM,39.0,30.0,70,29.70,10.0,West,12.7,23.0,N/A,,Partly Cloudy,270,2013-03-16 03:53:00